sat.trackr.live / text

‹ back to catalog

STARLINK-2098

NORAD 47378 · 2021-005AF

PAYLOAD ACTIVE UNKNOWN

§ Identity

Operator
Country
US
Launch date
2021-01-20
Launch site
AFETR
Launch vehicle
Mass (kg)
RCS (m²)

Purposes: comms

External: N2YO · Heavens-Above · Gunter

§ Orbital elements

Epoch: 2026-09-20T02:06:03.266784Z

Period
94.01 min
Inclination
53.1612°
Eccentricity
0.0001606
Mean motion
15.31691755 rev/d
Perigee alt
469.7 km
Apogee alt
471.9 km
Semi-major
6,848.9 km
B*
2.1638e-4
RAAN
189.4811°
Arg perigee
93.5001°
Mean anomaly
266.6184°
Rev number
31,350

§ Raw data

STARLINK-20981 47378U 21005AF  26263.08753781  .00006353  00000+0  21638-3 0  99942 47378  53.1612 189.4811 0001606  93.5001 266.6184 15.31691755313500

JSON: /api/v1/satellites/47378 · /tle

For live sub-satellite position, see the globe view (requires WebGL).

§ Visibility from observer

Set your observer location to see the next 7 days of passes ≥ 10°. The values pass through the URL so the page stays shareable.

No JS? Fill the form by hand. The geolocation button needs JavaScript.